Regional Weather Roundup
Issued by NWS

Home | Current Version | Previous Version | Text Only | Print | Product List | Glossary On
Versions: 1 2 3 4 5 6 7 8 9 10 11 12 13 14 15 16 17 18 19 20 21 22 23 24 25 26 27 28 29 30 31 32 33 34 35 36 37 38 39 40 41 42 43 44 45 46 47 48 49 50
000
ASUS43 KMPX 231610
RWRMN
WEATHER ROUNDUP FOR MINNESOTA
NATIONAL WEATHER SERVICE TWIN CITIES/CHANHASSEN MN
1100 AM CDT SUN JUL 23 2017


NOTE: "FAIR" INDICATES FEW OR NO CLOUDS BELOW 12,000 FEET WITH NO
SIGNIFICANT WEATHER AND/OR OBSTRUCTIONS TO VISIBILITY. N/A MEANS
CURRENT SKY AND/OR WEATHER CONDITIONS ARE NOT AVAILABLE.

MNZ060>063-068>070-231700-
   Twin Cities Metro

CITY           SKY/WX    TMP DP  RH WIND       PRES   REMARKS
TWIN CITIES    PTSUNNY   74  59  59 NW12      29.92R
ST PAUL        CLOUDY    71  60  68 NW14      29.91R
CRYSTAL        CLOUDY    70  57  63 NW9       29.91R
BLAINE         PTSUNNY   72  61  68 NW10      29.92R
LAKEVILLE      CLOUDY    70  59  68 NW9       29.92R
EDEN PRAIRIE   CLOUDY    72  60  66 N9        29.91R
SOUTH ST PAUL  PTSUNNY   72  57  59 N10       29.91R
LAKE ELMO      CLOUDY    70  59  68 NW8       29.92R
$$
MNZ001>005-007-008-013>017-022>024-027-028-231700-
   Northwest Minnesota

CITY           SKY/WX    TMP DP  RH WIND       PRES   REMARKS
BEMIDJI        CLOUDY    65  58  80 N8        29.99R
HALLOCK        MOSUNNY   70  63  78 CALM      30.01S
ROSEAU         SUNNY     70  64  83 NE7       30.01S
WARROAD        SUNNY     70  63  78 NE5       30.02S
THIEF RVR FALL CLOUDY    68  59  73 NE6       30.02R
CROOKSTON      CLOUDY    70  61  73 N7        30.01S
FOSSTON        CLOUDY    68  63  83 N8        30.01R
DETROIT LAKES  CLOUDY    64  59  82 N6        30.01R
MOORHEAD       CLOUDY    64  57  77 N9        30.02R
PARK RAPIDS    CLOUDY    69  58  67 N12       29.98R
MAHNOMEN       CLOUDY    67  58  74 N6        30.00S
$$
MNZ006-009>011-018-025>026-231700-
   North Central Minnesota

CITY           SKY/WX    TMP DP  RH WIND       PRES   REMARKS
BAUDETTE       MOSUNNY   70  60  70 E7        30.00R
FLAG ISLAND    SUNNY     72  59  64 E3        30.00S
INTL FALLS     SUNNY     71  54  54 E9        29.99R
WASKISH        CLOUDY    66  59  77 E6        29.99S
BIG FORK       CLOUDY    64  57  77 NE6       29.98S
LONGVILLE      CLOUDY    64  59  82 N8        29.97R
GRAND RAPIDS   CLOUDY    64  57  78 VRB7      29.99R
CRANE LAKE     MOSUNNY   64  55  72 NE3       29.99R
ORR            CLOUDY    64  55  72 CALM      29.96R
COOK           CLOUDY    64  57  77 NE5       29.98R
WALKER         CLOUDY    64  58  79 N9        29.98R
$$
MNZ012-019>021-037-231700-
   Northeast Minnesota

CITY           SKY/WX    TMP DP  RH WIND       PRES   REMARKS
DULUTH         CLOUDY    62  58  86 N9        29.94R
ELY            CLOUDY    61  57  88 NE6       29.97R
HIBBING        CLOUDY    62  58  86 N7        29.96R
EVELETH        PTSUNNY   63  60  92 N6        29.97R
DULUTH HARBOR  CLOUDY    61  57  88 CALM      29.95R
TWO HARBORS    CLOUDY    64  59  82 NE7       29.93R HAZE
GRAND MARAIS     N/A     60  57  89 CALM      29.93R
G MARAIS ARPRT CLOUDY    63  52  67 NE15      29.96R
$$
MNZ029>031-032-039>041-046>048-054>057-064-231700-
   West Central Minnesota

CITY           SKY/WX    TMP DP  RH WIND       PRES   REMARKS
FERGUS FALLS   CLOUDY    64  59  82 N7        30.00R
WHEATON        CLOUDY    66  57  72 NW10      30.03R
MORRIS         PTSUNNY   66  59  77 NW15      30.00R
ALEXANDRIA     CLOUDY    67  58  72 NW9       30.00R
ELBOW LAKE     CLOUDY    65  59  82 W13       30.01R
WADENA         CLOUDY    66  57  72 N8        29.98R
GLENWOOD       MOSUNNY   68  57  68 NW13      29.99R
APPLETON       CLOUDY    70  57  64 N14       30.00R
BENSON         CLOUDY    70  57  64 N12       30.01R
ORTONVILLE     CLOUDY    68  59  73 NW12G17   30.01R
MADISON        CLOUDY    72  61  68 NW13      30.01R
WILLMAR        PTSUNNY   70  61  73 NW12      29.99R
$$
MNZ033>034-036-042>043-049>051-058-059-231700-
   Central Minnesota

CITY           SKY/WX    TMP DP  RH WIND       PRES   REMARKS
ST CLOUD       CLOUDY    70  61  73 NW12      29.94R
SAUK CENTRE    PTSUNNY   68  58  70 NW12G17   29.97R
PAYNESVILLE    PTSUNNY   70  58  66 NW7G16    29.97R
AITKIN         CLOUDY    64  57  77 N8        29.95R
PINE RIVER     CLOUDY    66  57  72 NE7       30.00R
BRAINERD       PTSUNNY   69  57  65 N16       29.95R
STAPLES        CLOUDY    68  57  68 N12       29.97R
LONG PRAIRIE   CLOUDY    68  57  68 W9        29.98R
LITTLE FALLS   CLOUDY    66  55  68 N5        29.95R
LITCHFIELD     PTSUNNY   72  61  68 NW12      29.96R
BUFFALO        CLOUDY    71  56  61 N8        29.95R
MAPLE LAKE     PTSUNNY   71  61  72 N7        29.95R
HUTCHINSON     CLOUDY    71  59  67 NW12      29.96R
$$
MNZ037-044-045-052-053-231700-
   East Central Minnesota

CITY           SKY/WX    TMP DP  RH WIND       PRES   REMARKS
PRINCETON      CLOUDY    70  61  73 N7        29.94R
MORA           SUNNY     70  59  68 N5        29.94R
CAMBRIDGE      PTSUNNY   72  57  60 N7        29.91R
RUSH CITY      MOSUNNY   69  60  71 N6        29.92R
MOOSE LAKE     CLOUDY    63  57  82 NE6       29.93R
HINCKLEY       CLOUDY    66  59  77 N8        29.93R
CLOQUET        CLOUDY    63  55  77 NE3       29.95R
MCGREGOR       CLOUDY    63  59  88 N8        29.96R
$$
MNZ071>073-080-081-089-090-097-098-231700-
   Southwest Minnesota

CITY           SKY/WX    TMP DP  RH WIND       PRES   REMARKS
MONTEVIDEO     CLOUDY    70  57  64 N12G22    29.99S
GRANITE FALLS  PTSUNNY   70  59  68 NW13G20   30.01R
CANBY          PTSUNNY   72  58  61 N10G17    30.02S
MARSHALL       PTSUNNY   68  59  73 N17       30.00R
REDWOOD FALLS  PTSUNNY   70  57  63 NW14G21   29.97R
OLIVIA         PTSUNNY   70  59  68 NW13      29.97R
PIPESTONE      MOSUNNY   73  57  56 NW9G16    30.02S
WINDOM         SUNNY     73  59  60 NW12G18   29.99R
WORTHINGTON    SUNNY     72  59  63 NW15      30.01R
JACKSON        SUNNY     72  59  64 NW15      29.99R
SLAYTON        HVY RAIN  70  59  66 NW10      30.01S
$$
MNZ065>067-074>077-082>085-091>093-231700-
   South Central Minnesota

CITY           SKY/WX    TMP DP  RH WIND       PRES   REMARKS
MANKATO        MOSUNNY   73  59  61 NW15      29.94R
NEW ULM        MOSUNNY   72  59  64 NW16      29.95R
ST JAMES       MOSUNNY   73  61  64 NW14      29.97R
FAIRMONT       MOSUNNY   73  61  65 NW12      29.97R
GLENCOE        PTSUNNY   70  62  73 NW12      29.94R
FARIBAULT      PTSUNNY   72  61  68 NW7       29.93R
OWATONNA       SUNNY     73  61  64 NW14      29.93R
WASECA         MOSUNNY   72  61  68 NW10      29.94S
ALBERT LEA     SUNNY     73  59  60 NW9       29.93R
$$
MNZ078>079-086>088-094>096-231700-
   Southeast Minnesota

CITY           SKY/WX    TMP DP  RH WIND       PRES   REMARKS
ROCHESTER      SUNNY     73  63  70 NW14      29.91R
RED WING       PTSUNNY   73  55  53 N9        29.89R
STANTON        CLOUDY    73  59  59 N10       29.90R
DODGE CENTER   SUNNY     72  57  60 NW14      29.92R
WINONA         PTSUNNY   77  64  65 N10       29.87R
AUSTIN         SUNNY     73  57  56 NW15G23   29.91S
PRESTON        SUNNY     74  59  59 NW10      29.90R
$$
ABBREVIATIONS USED IN REMARKS
   TC - TEMPERATURES IN CELSIUS
  WCI - WIND CHILL INDEX
   HX - HEAT INDEX
  VSB - VISIBILITY
$$




USA.gov is the U.S. government's official web portal to all federal, state and local government web resources and services.